Zurück zum Katalog

STARLINK-31311

AktivKommunikationVLEO
NORAD 58948·PAYLOAD·🇺🇸 United States

Gestartet Feb 10, 2024 von Vandenberg Space Force Base

Loading…

Nächste Überflüge (nächste 24 Stunden)

TLE

AktuellSource: CelesTrak SupGP

Epoche: Sep 14, 2026, 22:28 UTC

1 58948C 24027T   26257.93659722 -.00070466  00000+0 -20818-2 0  2576
2 58948  53.1577 147.3693 0001288  89.5904  80.6723 15.34428548    12

Verfolge STARLINK-31311 in Echtzeit mit AllMySat

Download on the App Store